Change the Weather History Date:

Monday, April 29, 2013

  Actual Average Record
Temperature  
Mean Temperature 66 °F -  
Max Temperature 73 °F 73 °F 90 °F (1974)
Min Temperature 60 °F 53 °F 35 °F (1967)
Cooling Degree Days 2    
Growing Degree Days 16 (Base 50)    
Moisture  
Dew Point 58 °F    
Average Humidity 84    
Maximum Humidity 100    
Minimum Humidity 68    
Precipitation  
Precipitation 0.07 in - - ()
Sea Level Pressure  
Sea Level Pressure 30.06 in    
Wind  
Wind Speed 4 mph (SSE)    
Max Wind Speed 10 mph    
Max Gust Speed 20 mph    
Visibility 9 miles    
Events Rain    
Averages and records for this station are not official NWS values.
T = Trace of Precipitation, MM = Missing Value Source: NWS Daily Summary

Daily Weather History Graph

Daily Weather History Graph

Search for Another Location

Airport or City:

Trip Planner

Search our weather history database for the weather conditions in past years. The results will help you decide how hot, cold, wet, or windy it might be!

Date:

Astronomy

Apr. 29, 2013 Rise Set
Actual Time 6:20 AM EDT 7:55 PM EDT
Civil Twilight 5:53 AM EDT 8:22 PM EDT
Nautical Twilight 5:21 AM EDT 8:54 PM EDT
Astronomical Twilight 4:47 AM EDT 9:29 PM EDT
Moon No Moon Rise 9:43 AM EDT (4/29)
Length of Visible Light 14h 28m
Length of Day
13h 34m
Waning Gibbous, 80% of the Moon is Illuminated
Apr 29
Waning Gibbous
May 2
Last Quarter
May 9
New
May 18
First Quarter
May 25
Full

Hourly Weather History & Observations

Time (EDT) Temp. Dew Point Humidity Pressure Visibility Wind Dir Wind Speed Gust Speed Precip Events Conditions
12:15 AM 61.9 °F 51.1 °F 68% 30.13 in 10.0 mi SE 3.5 mph - N/A Rain Light Rain
12:35 AM 61.7 °F 51.8 °F 70% 30.12 in 10.0 mi SE 3.5 mph - N/A   Light Drizzle
12:55 AM 61.7 °F 52.3 °F 71% 30.12 in 10.0 mi Calm Calm - N/A   Light Drizzle
1:15 AM 61.7 °F 52.7 °F 72% 30.12 in 10.0 mi Calm Calm - N/A   Scattered Clouds
1:35 AM 62.1 °F 52.9 °F 72% 30.12 in 10.0 mi Calm Calm - N/A   Mostly Cloudy
1:55 AM 61.9 °F 54.0 °F 75% 30.11 in 10.0 mi Calm Calm - 0.01 in Rain Light Rain
2:15 AM 61.3 °F 55.4 °F 81% 30.10 in 10.0 mi Calm Calm - 0.01 in Rain Light Rain
2:35 AM 60.6 °F 56.3 °F 86% 30.09 in 10.0 mi Calm Calm - 0.02 in Rain Light Rain
2:55 AM 60.3 °F 57.2 °F 90% 30.08 in 10.0 mi Calm Calm - 0.02 in   Drizzle
3:15 AM 60.1 °F 57.4 °F 91% 30.07 in 10.0 mi East 3.5 mph - N/A   Light Drizzle
3:35 AM 60.4 °F 57.2 °F 89% 30.07 in 10.0 mi ESE 3.5 mph - N/A   Clear
3:55 AM 60.8 °F 57.0 °F 87% 30.06 in 10.0 mi SSE 4.6 mph - N/A   Clear
4:15 AM 61.2 °F 56.7 °F 85% 30.06 in 10.0 mi SE 5.8 mph - N/A   Drizzle
4:35 AM 61.5 °F 56.5 °F 83% 30.06 in 10.0 mi SE 5.8 mph - 0.01 in Rain Light Rain
4:55 AM 61.2 °F 56.5 °F 85% 30.06 in 10.0 mi SSE 5.8 mph - 0.01 in Rain Light Rain
5:15 AM 60.8 °F 56.8 °F 87% 30.06 in 10.0 mi SSE 8.1 mph - 0.01 in Rain Light Rain
5:35 AM 60.8 °F 57.4 °F 88% 30.06 in 10.0 mi SSE 6.9 mph - 0.02 in Rain Rain
5:55 AM 60.4 °F 57.6 °F 90% 30.06 in 10.0 mi SSE 6.9 mph - 0.02 in   Drizzle
6:15 AM 60.4 °F 57.9 °F 91% 30.05 in 10.0 mi SE 8.1 mph - 0.01 in Rain Rain
6:35 AM 60.8 °F 58.1 °F 91% 30.05 in 10.0 mi SSE 8.1 mph - 0.01 in Rain Light Rain
6:55 AM 60.8 °F 58.1 °F 91% 30.06 in 10.0 mi SSE 9.2 mph - 0.01 in   Drizzle
6:56 AM 60.8 °F 57.2 °F 88% 30.06 in 10.0 mi SSE 8.1 mph - N/A   Overcast
7:56 AM 60.8 °F 59.0 °F 94% 30.07 in 3.0 mi South 10.4 mph - N/A Rain Rain
8:56 AM 60.8 °F 60.8 °F 100% 30.09 in 3.0 mi South 8.1 mph 19.6 mph N/A Rain Rain
9:56 AM 62.6 °F 60.8 °F 94% 30.09 in 2.0 mi SSE 6.9 mph - N/A Rain Rain
10:56 AM 62.6 °F 60.8 °F 94% 30.08 in 5.0 mi SE 8.1 mph - N/A   Drizzle
11:56 AM 64.4 °F 62.6 °F 94% 30.06 in 7.0 mi South 8.1 mph - N/A   Overcast
12:56 PM 68.0 °F 62.6 °F 83% 30.06 in 7.0 mi SSE 8.1 mph - N/A   Overcast
1:56 PM 71.6 °F 62.6 °F 73% 30.05 in 10.0 mi South 6.9 mph - N/A   Scattered Clouds
2:56 PM 71.6 °F 62.6 °F 73% 30.02 in 10.0 mi SE 5.8 mph - N/A   Scattered Clouds
3:56 PM 73.4 °F 62.6 °F 69% 30.00 in 10.0 mi South 6.9 mph - N/A   Scattered Clouds
4:56 PM 71.6 °F 60.8 °F 69% 29.99 in 10.0 mi South 5.8 mph - N/A   Scattered Clouds
5:56 PM 71.6 °F 60.8 °F 69% 29.99 in 10.0 mi SSE 5.8 mph - N/A   Scattered Clouds
6:55 PM 69.8 °F 60.8 °F 73% 30.00 in 10.0 mi SSE 5.8 mph - N/A   Clear
7:56 PM 68.0 °F 62.6 °F 83% 30.01 in 10.0 mi South 6.9 mph - N/A   Clear
8:56 PM 66.2 °F 60.8 °F 83% 30.01 in 10.0 mi SSW 6.9 mph - N/A   Clear
9:15 PM 65.3 °F 60.8 °F 85% 30.02 in 10.0 mi SSW 4.6 mph - N/A   Clear
9:35 PM 65.1 °F 61.0 °F 86% 30.03 in 10.0 mi SSW 4.6 mph - N/A   Clear
9:55 PM 64.9 °F 60.6 °F 86% 30.03 in 10.0 mi Calm Calm - N/A   Clear
10:15 PM 64.4 °F 60.3 °F 86% 30.02 in 10.0 mi Calm Calm - N/A   Clear
10:35 PM 63.7 °F 60.3 °F 89% 30.02 in 10.0 mi Calm Calm - N/A   Clear
10:55 PM 62.8 °F 59.7 °F 90% 30.02 in 10.0 mi Calm Calm - N/A   Clear
11:35 PM 62.1 °F 60.4 °F 94% 30.02 in 10.0 mi Calm Calm - N/A   Clear
11:55 PM 62.2 °F 60.4 °F 94% 30.02 in 10.0 mi Calm Calm - N/A   Clear